Tracking 35237 objects as of 6-Sep-2026
HD Live streaming from Space Station
objects crossing your sky now

SL-12 DEB


10-day predictions


NORAD ID: 44559
Int'l Code: 2010-041AE
Launch date: September 2, 2010
Source: Commonwealth of Independent States (former USSR) (CIS)
Launch site: ()

Note: This is SATELLITE DEBRIS
Your satellite tracking list
Your tracking list is empty




NASA's NSSDC Master Catalog

Two Line Element Set (TLE):
1 44559U 10041AE  22281.39035040  .23406589  53159+0  17369+0 0  9996
2 44559  64.5269 272.9759 0350862 310.2945  46.7993 15.25812268 36029
Source of the keplerian elements: AFSPC